Hourly Data Report for October 22, 2016

All times are specified in Local Standard Time (LST). Add 1 hour to adjust for Daylight Saving Time where and when it is observed.

PANGNIRTUNG
NUNAVUT

66°08'36.300" N
65°42'40.500" W
22.60 m
2403049
71826
WXP

Download Data

Hourly Data (October 2016)
Hourly Data Report for October 22, 2016
Temp Definition
°C
Dew Point Temp Definition
°C
Rel Hum Definition
%
Wind Dir Definition
10's deg

Wind Spd Definition
km/h
Visibility Definition
km
Stn Press Definition
kPa
Hmdx Definition


Wind Chill Definition


Weather Definition


TIME
00:00 -8.6 -13.7 66 28 21   101.04   -16 LegendNANA
01:00 -8.7 -13.8 66 31 20   101.08   -16 LegendNANA
02:00 -8.8 -14.2 65 31 14   101.16   -15 LegendNANA
03:00 -10.9 -15.0 72 1 3   101.20   -13 LegendNANA
04:00 -9.9 -13.9 73 19 4   101.27   -12 LegendNANA
05:00 -10.7 -14.9 71 19 7   101.29   -15 LegendNANA
06:00 -11.0 -14.6 75 21 4   101.34   -13 LegendNANA
07:00 -11.7 -15.6 73 15 4   101.38   -14 LegendNANA
08:00 -10.5 -14.5 72 14 6   101.42   -14 LegendNANA
09:00 -10.5 -14.2 74 12 6   101.48   -14 LegendNANA
10:00 -10.3 -14.0 74 13 9   101.55   -15 LegendNANA
11:00 -10.8 -16.2 64 11 7   101.60   -15 LegendNANA
12:00 -10.3 -15.7 65 12 9   101.68   -15 LegendNANA
13:00 -8.4 -14.3 62 12 5   101.74   -11 LegendNANA
14:00 -8.8 -15.2 60 11 3   101.81   -10 LegendNANA
15:00 -9.6 -15.8 61 9 5   101.88   -12 LegendNANA
16:00 -8.3 -14.2 63 25 6   101.96   -12 LegendNANA
17:00 -8.9 -14.2 65 27 1   102.05   -9 LegendNANA
18:00 -8.2 -13.6 65 33 4   102.12   -10 LegendNANA
19:00 -7.6 -13.2 64 29 1   102.16   -8 LegendNANA
20:00 -8.8 -14.4 64 6 8   102.20   -13 LegendNANA
21:00 -7.1 -12.7 64 28 3   102.26   -9 LegendNANA
22:00 -8.1 -14.8 58 11 8   102.27   -12 LegendNANA
23:00 -8.9 -14.9 62 12 4   102.32   -11 LegendNANA

Notes on Data Quality.

Legend

  • E = Estimated
  • M = Missing
  • NA = Not Available
  • ‡ = Partner data that is not subject to review by the National Climate Archives
Date modified: